Home > Weather > Doha > Past weeks

Flag for Qatar Weather for the Past 2 Weeks in Doha, Qatar

Now
84 °F

Clear.


Feels Like: 85 °F
Forecast: 80 / 96 °F
Wind: 12 mph from North

Location: Doha International Airport

Current Time: Apr 30, 2016 at 8:44:02 PM

Latest Report: Apr 30, 2016 at 8:00 PM


Visibility: 10 mi

Pressure: 29.86 "Hg

Humidity: 48%

Dew Point: 63 °F

Location of DohaLocation

Historic Weather in Doha — Graph

°F

Doha Temperature Yesterday

Maximum temperature yesterday: 95 °F (at 12:00 PM)
Minimum temperature yesterday: 79 °F (at 4:30 AM)
Average temperature yesterday: 87 °F

High & Low Weather Summary for the Past Weeks

 TemperatureHumidityPressure
High102 °F (Apr 26, 12:00 PM)70% (Apr 15, 7:00 PM)30.01 "Hg (Apr 15, 7:00 PM)
Low73 °F (Apr 16, 4:30 AM)4% (Apr 23, 10:00 AM)29.65 "Hg (Apr 24, 3:00 PM)
Average85 °F34%29.84 "Hg
* Reported Apr 15 7:00 PM — Apr 30 7:00 PM, Doha, Weather by CustomWeather, © 2016

Note: Actual official high and low records may vary slightly from our data, if they occured in-between our weather recording intervals... More about our weather records

Advertising

Doha Weather History for the Previous 24 Hours

Scroll right to see more
 ConditionsComfort  
Time TempWeatherWind HumidityBarometerVisibility
7:00 PM
Sat, Apr 30
84 °FClear.17 mph43%29.83 "Hg10 mi
6:00 PM86 °FPassing clouds.14 mph38%29.83 "HgN/A
5:30 PM86 °FSunny.16 mph38%29.83 "Hg10 mi
5:00 PM86 °FPassing clouds.15 mph43%29.83 "HgN/A
4:00 PM90 °FClear.18 mph36%29.80 "Hg4 mi
3:30 PM90 °FScattered clouds.17 mph41%29.80 "Hg4 mi
3:00 PM90 °FPartly sunny.18 mph38%29.80 "Hg3 mi
2:30 PM93 °FPartly sunny.15 mph30%29.80 "Hg3 mi
2:00 PM95 °FPartly sunny.15 mph28%29.80 "Hg4 mi
12:00 PM95 °FPassing clouds.10 mph14%29.80 "HgN/A
11:30 AM93 °FPassing clouds.8 mph19%29.83 "HgN/A
11:00 AM95 °FPassing clouds.9 mph15%29.80 "HgN/A
10:30 AM91 °FPassing clouds.9 mph21%29.83 "HgN/A
10:00 AM91 °FPassing clouds.10 mph21%29.83 "HgN/A
9:00 AM90 °FPassing clouds.9 mph33%29.83 "HgN/A
8:00 AM86 °FPassing clouds.9 mph43%29.83 "HgN/A
7:00 AM84 °FClear.12 mph55%29.80 "Hg6 mi
6:30 AM86 °FClear.6 mph49%29.77 "Hg6 mi
6:00 AM86 °FClear.7 mph46%29.77 "Hg6 mi
5:00 AM86 °FClear.5 mph49%29.74 "Hg6 mi
4:00 AM84 °FClear.2 mph58%29.74 "Hg10 mi
3:00 AM84 °FClear.2 mph55%29.74 "Hg10 mi
2:00 AM86 °FClear.3 mph55%29.74 "Hg10 mi
1:00 AM91 °FPassing clouds.3 mph18%29.74 "HgN/A
12:00 AM91 °FClear.2 mph17%29.74 "Hg10 mi
11:00 PM
Fri, Apr 29
91 °FPassing clouds.3 mph20%29.77 "HgN/A
10:00 PM90 °FPassing clouds.3 mph29%29.77 "HgN/A
9:00 PM90 °FPassing clouds.3 mph36%29.74 "HgN/A
8:00 PM86 °FPassing clouds.5 mph52%29.74 "HgN/A
Weather by CustomWeather, © 2016

See weather overviewHow to use our weather pages